When you browse on this site, cookies collect data to enhance your experience and personalize the content and advertising you see.
Visit our Privacy Policy to learn more. By continuing to use the site, you agree to this use of cookies and data.
  • In France
  • List of Countries
  • For 7 days
  • Water Temperature
  • Weather Map
  • Weather Widgets
  • user-avatar
    Login

    Hourly Weather Polotsk

    Today, 27 February, Thursday

    Time Temperature Precipitation Wind Pressure Humidity
    00:00 +2°C° 0 mm 2 mps 730 mmHg 84%
    01:00 +2°C° 0 mm 2 mps 730 mmHg 84%
    02:00 +3°C° 0 mm 1 mps 730 mmHg 87%
    03:00 +3°C° 0 mm 1 mps 730 mmHg 89%
    04:00 +3°C° 0 mm 1 mps 730 mmHg 90%
    05:00 +3°C° 0 mm 1 mps 729 mmHg 91%
    06:00 +3°C° 1.1 mm 1 mps 729 mmHg 93%
    07:00 +1°C° 1.1 mm 2 mps 729 mmHg 95%
    08:00 +1°C° 1.1 mm 2 mps 729 mmHg 97%
    09:00 0°C° 1 mm 3 mps 729 mmHg 96%
    10:00 -1°C° 1 mm 4 mps 729 mmHg 95%
    11:00 -1°C° 1 mm 5 mps 730 mmHg 94%
    12:00 0°C° 0.1 mm 5 mps 730 mmHg 88%
    13:00 0°C° 0.1 mm 5 mps 730 mmHg 81%
    14:00 +1°C° 0.1 mm 5 mps 730 mmHg 74%
    15:00 +1°C° 0 mm 5 mps 731 mmHg 75%
    16:00 0°C° 0 mm 4 mps 731 mmHg 75%
    17:00 0°C° 0 mm 4 mps 731 mmHg 75%
    18:00 0°C° 0 mm 3 mps 731 mmHg 78%
    19:00 -1°C° 0 mm 3 mps 731 mmHg 81%
    20:00 -1°C° 0 mm 3 mps 732 mmHg 84%
    21:00 -2°C° 0 mm 3 mps 732 mmHg 84%
    22:00 -2°C° 0 mm 3 mps 732 mmHg 85%
    23:00 -3°C° 0 mm 4 mps 731 mmHg 85%

    Tomorrow, 28 February, Friday

    Time Temperature Precipitation Wind Pressure Humidity
    00:00 -3°C° 0 mm 4 mps 732 mmHg 84%
    01:00 -3°C° 0 mm 4 mps 732 mmHg 83%
    02:00 -4°C° 0 mm 4 mps 732 mmHg 82%
    03:00 -3°C° 0 mm 4 mps 732 mmHg 82%
    04:00 -3°C° 0 mm 4 mps 732 mmHg 82%
    05:00 -3°C° 0 mm 4 mps 732 mmHg 81%
    06:00 -4°C° 0.1 mm 5 mps 732 mmHg 83%
    07:00 -4°C° 0.1 mm 5 mps 733 mmHg 85%
    08:00 -4°C° 0.1 mm 5 mps 733 mmHg 87%
    09:00 -2°C° 0 mm 5 mps 733 mmHg 84%
    10:00 -2°C° 0 mm 5 mps 733 mmHg 81%
    11:00 -2°C° 0 mm 6 mps 734 mmHg 77%
    12:00 -2°C° 0 mm 6 mps 734 mmHg 77%
    13:00 -2°C° 0 mm 6 mps 735 mmHg 77%
    14:00 -2°C° 0 mm 6 mps 735 mmHg 77%
    15:00 -1°C° 0 mm 5 mps 736 mmHg 76%
    16:00 -1°C° 0 mm 5 mps 736 mmHg 75%
    17:00 -2°C° 0 mm 5 mps 736 mmHg 74%
    18:00 -2°C° 0 mm 4 mps 737 mmHg 79%
    19:00 -2°C° 0 mm 4 mps 737 mmHg 83%
    20:00 -3°C° 0 mm 4 mps 738 mmHg 88%
    21:00 -3°C° 0.1 mm 4 mps 738 mmHg 87%
    22:00 -3°C° 0.1 mm 4 mps 738 mmHg 86%
    23:00 -3°C° 0.1 mm 4 mps 739 mmHg 85%

    Day after tomorrow, 29 February, Saturday

    Time Temperature Precipitation Wind Pressure Humidity
    00:00 -4°C° 0 mm 4 mps 739 mmHg 84%
    01:00 -4°C° 0 mm 4 mps 740 mmHg 83%
    02:00 -5°C° 0 mm 4 mps 740 mmHg 82%
    03:00 -5°C° 0 mm 3 mps 740 mmHg 83%
    04:00 -5°C° 0 mm 3 mps 741 mmHg 84%
    05:00 -4°C° 0 mm 2 mps 741 mmHg 85%
    06:00 -4°C° 0 mm 3 mps 741 mmHg 86%
    07:00 -4°C° 0 mm 3 mps 741 mmHg 87%
    08:00 -4°C° 0 mm 3 mps 742 mmHg 88%
    09:00 -2°C° 0 mm 3 mps 742 mmHg 83%
    10:00 -1°C° 0 mm 3 mps 742 mmHg 78%
    11:00 -1°C° 0 mm 3 mps 742 mmHg 73%
    12:00 0°C° 0 mm 3 mps 742 mmHg 72%
    13:00 0°C° 0 mm 3 mps 742 mmHg 71%
    14:00 0°C° 0 mm 3 mps 743 mmHg 70%
    15:00 0°C° 0 mm 3 mps 743 mmHg 72%
    16:00 +1°C° 0 mm 2 mps 743 mmHg 74%
    17:00 +2°C° 0 mm 1 mps 743 mmHg 76%
    18:00 +1°C° 0 mm 1 mps 743 mmHg 80%
    19:00 -1°C° 0 mm 2 mps 743 mmHg 83%
    20:00 -2°C° 0 mm 2 mps 744 mmHg 86%
    21:00 -2°C° 0 mm 2 mps 744 mmHg 87%
    22:00 -2°C° 0 mm 3 mps 744 mmHg 88%
    23:00 -2°C° 0 mm 3 mps 744 mmHg 89%

    1 March, Sunday

    Time Temperature Precipitation Wind Pressure Humidity
    00:00 -2°C° 0 mm 3 mps 744 mmHg 87%
    01:00 -3°C° 0 mm 4 mps 743 mmHg 85%
    02:00 -3°C° 0 mm 4 mps 743 mmHg 84%
    03:00 -4°C° 0 mm 5 mps 743 mmHg 81%
    04:00 -2°C° 0 mm 5 mps 742 mmHg 79%
    05:00 -3°C° 0 mm 6 mps 742 mmHg 77%
    06:00 -2°C° 0 mm 6 mps 742 mmHg 74%
    07:00 -2°C° 0 mm 6 mps 741 mmHg 71%
    08:00 -1°C° 0 mm 7 mps 741 mmHg 68%
    09:00 -1°C° 0 mm 7 mps 741 mmHg 65%
    10:00 0°C° 0 mm 7 mps 741 mmHg 62%
    11:00 +2°C° 0 mm 7 mps 740 mmHg 59%
    12:00 +2°C° 0 mm 7 mps 740 mmHg 58%
    13:00 +2°C° 0 mm 7 mps 740 mmHg 57%
    14:00 +3°C° 0 mm 7 mps 740 mmHg 56%
    15:00 +2°C° 0.1 mm 6 mps 739 mmHg 65%
    16:00 +1°C° 0.1 mm 6 mps 739 mmHg 73%
    17:00 -1°C° 0.1 mm 6 mps 739 mmHg 82%
    18:00 -1°C° 0.4 mm 6 mps 739 mmHg 86%
    19:00 -1°C° 0.4 mm 6 mps 739 mmHg 91%
    20:00 -1°C° 0.4 mm 6 mps 739 mmHg 96%
    21:00 0°C° 0.4 mm 5 mps 738 mmHg 96%
    22:00 0°C° 0.4 mm 5 mps 738 mmHg 96%
    23:00 +1°C° 0.4 mm 4 mps 738 mmHg 96%

    2 March, Monday

    Time Temperature Precipitation Wind Pressure Humidity
    00:00 +1°C° 0.1 mm 4 mps 738 mmHg 95%
    01:00 +1°C° 0.1 mm 4 mps 739 mmHg 95%
    02:00 +1°C° 0.1 mm 4 mps 739 mmHg 94%
    03:00 +1°C° 0.1 mm 4 mps 739 mmHg 94%
    04:00 0°C° 0.1 mm 4 mps 739 mmHg 94%
    05:00 0°C° 0.1 mm 4 mps 738 mmHg 94%
    06:00 0°C° 0 mm 4 mps 739 mmHg 93%
    07:00 0°C° 0 mm 4 mps 739 mmHg 93%
    08:00 0°C° 0 mm 4 mps 739 mmHg 92%
    09:00 +1°C° 0 mm 4 mps 739 mmHg 88%
    10:00 +2°C° 0 mm 5 mps 739 mmHg 83%
    11:00 +3°C° 0 mm 5 mps 739 mmHg 79%
    12:00 +5°C° 0 mm 5 mps 739 mmHg 76%
    13:00 +5°C° 0 mm 5 mps 739 mmHg 73%
    14:00 +6°C° 0 mm 5 mps 738 mmHg 70%
    15:00 +5°C° 0.1 mm 5 mps 738 mmHg 76%
    16:00 +5°C° 0.1 mm 5 mps 737 mmHg 82%
    17:00 +3°C° 0.1 mm 5 mps 737 mmHg 88%
    18:00 +3°C° 0.5 mm 5 mps 737 mmHg 88%
    19:00 +2°C° 0.5 mm 5 mps 736 mmHg 88%
    20:00 +2°C° 0.5 mm 5 mps 736 mmHg 88%
    21:00 +2°C° 0.5 mm 6 mps 736 mmHg 89%
    22:00 +3°C° 0.5 mm 6 mps 735 mmHg 90%
    23:00 +3°C° 0.5 mm 6 mps 735 mmHg 91%

    3 March, Tuesday

    Time Temperature Precipitation Wind Pressure Humidity
    00:00 +3°C° 0.4 mm 6 mps 735 mmHg 91%
    01:00 +3°C° 0.4 mm 5 mps 734 mmHg 91%
    02:00 +3°C° 0.4 mm 5 mps 734 mmHg 91%
    03:00 +3°C° 1 mm 5 mps 734 mmHg 92%
    04:00 +3°C° 1 mm 5 mps 734 mmHg 92%
    05:00 +3°C° 1 mm 5 mps 734 mmHg 93%
    06:00 +3°C° 0.5 mm 5 mps 734 mmHg 92%
    07:00 +3°C° 0.5 mm 5 mps 735 mmHg 90%
    08:00 +3°C° 0.5 mm 5 mps 735 mmHg 89%
    09:00 +3°C° 0 mm 5 mps 736 mmHg 83%
    10:00 +3°C° 0 mm 5 mps 737 mmHg 77%
    11:00 +5°C° 0 mm 4 mps 738 mmHg 71%
    12:00 +5°C° 0 mm 4 mps 739 mmHg 67%
    13:00 +6°C° 0 mm 5 mps 739 mmHg 63%
    14:00 +7°C° 0 mm 5 mps 740 mmHg 59%
    15:00 +6°C° 0 mm 4 mps 741 mmHg 62%
    16:00 +7°C° 0 mm 3 mps 741 mmHg 65%
    17:00 +6°C° 0 mm 2 mps 741 mmHg 68%
    18:00 +6°C° 0 mm 2 mps 742 mmHg 72%
    19:00 +5°C° 0 mm 2 mps 742 mmHg 76%
    20:00 +4°C° 0 mm 2 mps 742 mmHg 80%
    21:00 +4°C° 0 mm 2 mps 743 mmHg 80%
    22:00 +3°C° 0 mm 2 mps 743 mmHg 81%
    23:00 +3°C° 0 mm 2 mps 743 mmHg 81%
    Show more